QPF
0.00 0.00 0.00 0.00 0.00 0.00 0.00 0.00 0.00 0.00 0.00 0.00 0.00 0.00 0.00 0.00 0.00 0.00 0.00 0.00 0.00 0.00 0.00 0.00 0.00 0.00 0.00 0.00 0.00 0.00 0.00 0.00 0.00 0.00 0.00 0.00 0.00 0.01 0.01 0.01 0.01 0.01 0.01 0.01 0.00 0.00 0.00 0.00 0.00
0.00 0.00 0.00 0.00 0.00 0.00 0.00 0.00 0.00 0.00 0.00 0.00 0.00 0.00 0.00 0.00 0.00 0.00 0.00 0.00 0.00 0.00 0.00 0.00 0.00 0.00 0.00 0.00 0.00 0.00 0.00 0.00 0.00 0.00 0.00 0.00 0.00 0.01 0.01 0.00 0.01 0.02 0.01 0.00 0.00 0.00 0.00 0.00 0.00
0.00 0.00 0.00 0.00 0.00 0.00 0.00 0.00 0.00 0.00 0.00 0.00 0.00 0.00 0.00 0.00 0.00 0.00 0.00 0.00 0.00 0.00 0.00 0.00 0.00 0.00 0.00 0.00 0.00 0.00 0.01 0.01 0.00 0.00 0.00 0.00 0.00 0.00 0.00 0.00 0.00 0.00 0.00 0.00 0.00 0.00 0.00 0.00 0.00
0.00 0.00 0.00 0.00 0.00 0.00 0.00 0.00 0.00 0.00 0.00 0.00 0.00 0.00 0.00 0.00 0.00 0.00 0.00 0.00 0.00 0.00 0.00 0.00 0.00 0.00 0.00 0.00 0.00 0.00 0.00 0.00 0.00 0.00 0.00 0.00 0.00 0.00 0.00 0.00 0.00 0.00 0.00 0.00 0.00 0.00 0.00 0.00 0.02
0.00 0.00 0.00 0.00 0.00 0.00 0.00 0.00 0.00 0.00 0.00 0.00 0.00 0.00 0.00 0.00 0.00 0.00 0.00 0.00 0.00 0.00 0.00 0.00 0.00 0.00 0.00 0.00 0.00 0.00 0.00 0.00 0.00 0.00 0.01 0.01 0.00 0.00 0.00 0.00 0.00 0.00 0.00 0.00 0.00 0.00 0.00 0.02 0.04
0.00 0.00 0.00 0.00 0.00 0.00 0.00 0.00 0.00 0.00 0.00 0.00 0.00 0.00 0.00 0.00 0.00 0.01 0.00 0.00 0.00 0.00 0.01 0.01 0.00 0.00 0.00 0.00 0.00 0.00 0.00 0.00 0.00 0.00 0.01 0.01 0.00 0.00 0.00 0.00 0.00 0.00 0.00 0.01 0.02 0.00 0.00 0.02 0.02
0.00 0.00 0.00 0.00 0.00 0.00 0.00 0.00 0.00 0.00 0.00 0.00 0.00 0.00 0.00 0.00 0.00 0.00 0.01 0.00 0.00 0.01 0.01 0.02 0.00 0.00 0.00 0.00 0.00 0.00 0.00 0.00 0.00 0.00 0.00 0.00 0.00 0.00 0.00 0.00 0.01 0.02 0.02 0.02 0.00 0.00 0.00 0.00 0.00
0.00 0.00 0.00 0.00 0.00 0.00 0.00 0.00 0.00 0.00 0.00 0.00 0.00 0.00 0.00 0.00 0.01 0.01 0.01 0.01 0.01 0.01 0.02 0.02 0.01 0.00 0.01 0.00 0.00 0.00 0.00 0.00 0.00 0.00 0.00 0.00 0.00 0.00 0.00 0.00 0.00 0.01 0.00 0.00 0.00 0.00 0.00 0.00 0.00
0.00 0.00 0.00 0.00 0.00 0.00 0.00 0.00 0.00 0.00 0.00 0.00 0.00 0.00 0.00 0.00 0.01 0.02 0.03 0.02 0.02 0.01 0.02 0.02 0.02 0.01 0.02 0.01 0.00 0.00 0.00 0.00 0.00 0.00 0.00 0.00 0.00 0.00 0.00 0.00 0.00 0.00 0.00 0.00 0.00 0.00 0.00 0.00 0.00
0.00 0.00 0.00 0.00 0.00 0.00 0.00 0.00 0.00 0.00 0.00 0.00 0.00 0.00 0.00 0.01 0.01 0.01 0.01 0.01 0.01 0.01 0.02 0.02 0.01 0.01 0.02 0.02 0.01 0.00 0.00 0.00 0.00 0.00 0.00 0.00 0.00 0.00 0.00 0.00 0.00 0.00 0.00 0.00 0.00 0.00 0.00 0.00 0.00
0.00 0.00 0.00 0.00 0.00 0.00 0.00 0.00 0.00 0.00 0.00 0.00 0.00 0.00 0.00 0.02 0.02 0.00 0.00 0.00 0.00 0.01 0.01 0.01 0.00 0.01 0.02 0.03 0.03 0.02 0.00 0.00 0.00 0.00 0.00 0.00 0.00 0.00 0.00 0.00 0.00 0.00 0.00 0.00 0.00 0.00 0.00 0.00 0.00
0.00 0.00 0.00 0.00 0.00 0.00 0.00 0.00 0.00 0.00 0.00 0.00 0.00 0.00 0.00 0.01 0.02 0.01 0.00 0.00 0.00 0.01 0.01 0.02 0.00 0.01 0.01 0.02 0.02 0.01 0.00 0.00 0.00 0.00 0.00 0.00 0.00 0.00 0.00 0.00 0.00 0.00 0.00 0.00 0.00 0.00 0.00 0.00 0.00
0.00 0.00 0.00 0.00 0.00 0.00 0.00 0.00 0.00 0.00 0.00 0.00 0.00 0.00 0.00 0.00 0.00 0.00 0.00 0.00 0.00 0.01 0.01 0.01 0.01 0.00 0.00 0.00 0.01 0.00 0.00 0.00 0.00 0.00 0.00 0.00 0.00 0.00 0.00 0.00 0.00 0.00 0.00 0.00 0.00 0.00 0.00 0.00 0.00
0.00 0.00 0.00 0.00 0.00 0.00 0.00 0.00 0.00 0.00 0.00 0.00 0.00 0.00 0.00 0.00 0.01 0.02 0.01 0.01 0.01 0.01 0.01 0.01 0.01 0.01 0.00 0.00 0.00 0.00 0.00 0.00 0.00 0.00 0.00 0.00 0.00 0.00 0.00 0.00 0.00 0.00 0.00 0.00 0.00 0.00 0.00 0.00 0.00
0.01 0.01 0.00 0.00 0.00 0.00 0.00 0.00 0.00 0.00 0.00 0.00 0.00 0.00 0.00 0.00 0.00 0.01 0.01 0.01 0.01 0.01 0.02 0.01 0.01 0.01 0.00 0.00 0.00 0.00 0.00 0.00 0.00 0.00 0.00 0.00 0.00 0.00 0.00 0.00 0.00 0.00 0.00 0.00 0.00 0.00 0.00 0.00 0.00
0.01 0.02 0.01 0.00 0.00 0.00 0.00 0.00 0.00 0.00 0.00 0.00 0.00 0.00 0.01 0.01 0.01 0.01 0.03 0.06 0.04 0.02 0.02 0.03 0.02 0.04 0.01 0.00 0.00 0.00 0.00 0.00 0.00 0.00 0.00 0.00 0.00 0.00 0.00 0.00 0.00 0.00 0.00 0.00 0.00 0.00 0.00 0.00 0.00
0.03 0.01 0.00 0.00 0.00 0.00 0.00 0.00 0.00 0.00 0.00 0.00 0.00 0.00 0.02 0.02 0.02 0.02 0.01 0.03 0.06 0.07 0.05 0.04 0.05 0.05 0.01 0.00 0.00 0.00 0.00 0.00 0.00 0.00 0.00 0.00 0.00 0.00 0.00 0.00 0.00 0.00 0.00 0.00 0.00 0.00 0.00 0.00 0.00
0.01 0.01 0.00 0.00 0.00 0.00 0.00 0.00 0.00 0.00 0.00 0.00 0.00 0.00 0.03 0.03 0.02 0.03 0.02 0.03 0.09 0.17 0.11 0.06 0.04 0.06 0.02 0.00 0.00 0.01 0.00 0.00 0.00 0.00 0.00 0.00 0.00 0.00 0.00 0.00 0.00 0.00 0.00 0.00 0.00 0.00 0.00 0.00 0.00
0.06 0.01 0.00 0.00 0.00 0.00 0.00 0.00 0.00 0.00 0.00 0.00 0.00 0.00 0.02 0.03 0.02 0.03 0.03 0.04 0.08 0.13 0.09 0.05 0.04 0.04 0.02 0.01 0.00 0.00 0.00 0.00 0.00 0.00 0.00 0.00 0.00 0.00 0.00 0.00 0.00 0.00 0.00 0.00 0.00 0.00 0.00 0.00 0.00
0.17 0.07 0.01 0.00 0.00 0.00 0.00 0.00 0.00 0.00 0.00 0.00 0.00 0.00 0.01 0.03 0.04 0.05 0.05 0.06 0.09 0.10 0.07 0.09 0.07 0.03 0.01 0.00 0.00 0.00 0.00 0.00 0.01 0.02 0.01 0.00 0.00 0.00 0.00 0.00 0.00 0.00 0.00 0.00 0.00 0.00 0.00 0.00 0.00
0.07 0.17 0.06 0.00 0.00 0.00 0.00 0.00 0.00 0.00 0.00 0.00 0.00 0.00 0.01 0.04 0.04 0.05 0.05 0.06 0.09 0.12 0.10 0.08 0.06 0.05 0.01 0.01 0.01 0.01 0.01 0.02 0.03 0.01 0.01 0.00 0.00 0.00 0.00 0.00 0.00 0.00 0.00 0.00 0.00 0.00 0.00 0.00 0.00
0.01 0.01 0.13 0.10 0.01 0.01 0.00 0.00 0.00 0.00 0.00 0.00 0.00 0.00 0.02 0.05 0.04 0.03 0.04 0.05 0.06 0.08 0.08 0.05 0.04 0.03 0.01 0.01 0.01 0.03 0.05 0.02 0.01 0.04 0.06 0.03 0.01 0.00 0.00 0.01 0.00 0.00 0.00 0.00 0.00 0.00 0.00 0.00 0.00
0.00 0.00 0.06 0.18 0.10 0.00 0.00 0.00 0.00 0.00 0.00 0.00 0.00 0.00 0.01 0.04 0.04 0.03 0.02 0.03 0.03 0.04 0.05 0.03 0.03 0.02 0.02 0.01 0.02 0.04 0.04 0.05 0.04 0.05 0.08 0.09 0.05 0.03 0.02 0.01 0.00 0.00 0.00 0.00 0.00 0.00 0.00 0.00 0.00
0.02 0.00 0.01 0.14 0.30 0.14 0.00 0.00 0.00 0.00 0.00 0.00 0.00 0.00 0.01 0.03 0.03 0.02 0.02 0.02 0.02 0.02 0.03 0.02 0.03 0.03 0.03 0.02 0.01 0.02 0.03 0.04 0.02 0.01 0.02 0.03 0.03 0.03 0.02 0.02 0.02 0.01 0.00 0.00 0.00 0.00 0.00 0.00 0.00
0.01 0.03 0.01 0.15 0.21 0.17 0.00 0.01 0.00 0.00 0.00 0.00 0.00 0.00 0.01 0.02 0.03 0.03 0.02 0.02 0.01 0.01 0.03 0.03 0.03 0.03 0.02 0.02 0.01 0.00 0.00 0.02 0.02 0.01 0.00 0.00 0.00 0.01 0.01 0.01 0.01 0.01 0.01 0.00 0.00 0.00 0.00 0.00 0.00
0.03 0.08 0.03 0.06 0.03 0.03 0.03 0.04 0.01 0.00 0.00 0.00 0.00 0.00 0.01 0.02 0.03 0.02 0.02 0.01 0.01 0.02 0.02 0.04 0.02 0.01 0.01 0.00 0.00 0.00 0.00 0.00 0.00 0.00 0.00 0.00 0.00 0.00 0.00 0.00 0.00 0.00 0.00 0.01 0.01 0.00 0.00 0.00 0.00
0.02 0.06 0.05 0.01 0.01 0.03 0.09 0.06 0.02 0.01 0.01 0.01 0.00 0.00 0.00 0.01 0.03 0.02 0.01 0.01 0.00 0.01 0.01 0.01 0.02 0.00 0.00 0.00 0.00 0.00 0.00 0.00 0.00 0.00 0.00 0.00 0.00 0.00 0.00 0.00 0.00 0.00 0.00 0.00 0.01 0.01 0.00 0.00 0.00
0.01 0.04 0.05 0.03 0.01 0.10 0.07 0.02 0.03 0.05 0.02 0.03 0.02 0.01 0.00 0.00 0.02 0.01 0.01 0.01 0.00 0.00 0.00 0.00 0.01 0.01 0.00 0.00 0.00 0.00 0.00 0.00 0.00 0.00 0.00 0.00 0.00 0.00 0.00 0.00 0.00 0.00 0.00 0.00 0.00 0.00 0.00 0.00 0.00
0.00 0.01 0.03 0.05 0.02 0.03 0.08 0.03 0.03 0.04 0.03 0.03 0.04 0.04 0.02 0.00 0.01 0.02 0.02 0.01 0.00 0.01 0.00 0.00 0.00 0.01 0.01 0.00 0.00 0.00 0.00 0.00 0.00 0.00 0.00 0.00 0.00 0.00 0.00 0.00 0.00 0.00 0.00 0.00 0.00 0.00 0.00 0.00 0.00
0.00 0.01 0.02 0.04 0.04 0.01 0.05 0.06 0.06 0.04 0.05 0.03 0.04 0.04 0.04 0.03 0.01 0.01 0.01 0.02 0.01 0.00 0.01 0.01 0.01 0.00 0.00 0.00 0.00 0.00 0.00 0.00 0.00 0.00 0.00 0.00 0.00 0.00 0.00 0.00 0.00 0.00 0.00 0.00 0.00 0.00 0.00 0.00 0.00
MSLP
1014.69 1014.72 1014.41 1013.72 1012.82 1010.68 1008.25 1007.40 1007.69 1007.74 1008.05 1007.80 1007.89 1007.67 1007.52 1007.30 1008.10 1009.68 1010.73 1011.07 1011.30 1012.22 1013.17 1014.28 1014.84 1015.22 1015.57 1015.97 1016.36 1016.81 1017.18 1017.46 1017.74 1018.05 1018.26 1018.43 1018.68 1018.77 1018.89 1019.03 1019.16 1019.39 1019.52 1019.68 1019.75 1019.99 1020.15 1020.27 1020.33
1014.58 1014.58 1014.12 1012.80 1011.23 1008.82 1006.95 1007.10 1007.59 1007.19 1007.53 1008.04 1008.32 1008.20 1007.94 1007.57 1009.08 1010.47 1011.04 1011.32 1011.68 1012.31 1013.22 1014.12 1014.98 1015.35 1015.76 1016.17 1016.61 1017.08 1017.43 1017.64 1018.00 1018.26 1018.49 1018.66 1018.95 1019.04 1019.21 1019.45 1019.71 1019.83 1020.04 1020.23 1020.39 1020.58 1020.73 1020.79 1020.87
1014.57 1014.41 1013.04 1011.80 1009.77 1007.03 1006.22 1006.75 1007.09 1007.59 1008.03 1007.91 1008.04 1008.49 1008.01 1008.05 1009.46 1010.23 1010.63 1011.44 1011.89 1012.66 1013.34 1014.26 1015.07 1015.56 1015.99 1016.40 1016.84 1017.32 1017.61 1017.88 1018.25 1018.54 1018.70 1018.92 1019.24 1019.44 1019.67 1019.91 1020.24 1020.44 1020.61 1020.82 1021.03 1021.16 1021.22 1021.24 1021.31
1014.16 1014.01 1013.31 1011.24 1008.22 1007.10 1006.76 1007.08 1007.12 1007.47 1008.16 1008.23 1008.02 1007.97 1008.84 1009.39 1009.53 1010.05 1010.95 1011.54 1012.06 1012.75 1013.45 1014.70 1015.30 1015.79 1016.26 1016.68 1017.03 1017.44 1017.85 1018.14 1018.50 1018.75 1018.98 1019.20 1019.53 1019.74 1019.97 1020.41 1020.72 1020.92 1021.12 1021.30 1021.45 1021.58 1021.59 1021.66 1021.77
1013.93 1012.85 1011.50 1010.00 1007.99 1007.48 1008.03 1007.87 1007.83 1007.46 1007.30 1007.56 1008.07 1007.57 1008.57 1009.65 1009.94 1010.53 1011.12 1011.58 1012.21 1012.98 1013.73 1014.84 1015.50 1016.07 1016.51 1016.93 1017.30 1017.67 1018.05 1018.37 1018.75 1019.03 1019.30 1019.55 1019.87 1020.24 1020.59 1020.88 1021.10 1021.30 1021.51 1021.68 1021.84 1021.97 1022.02 1022.12 1022.25
1013.37 1012.24 1010.38 1008.65 1007.48 1007.50 1008.30 1008.10 1008.10 1007.61 1007.42 1007.55 1008.03 1008.00 1008.72 1010.00 1010.16 1010.96 1011.43 1011.70 1012.53 1013.19 1014.04 1014.94 1015.86 1016.34 1016.76 1017.17 1017.56 1017.91 1018.31 1018.61 1018.99 1019.31 1019.56 1019.97 1020.33 1020.71 1020.99 1021.27 1021.41 1021.58 1021.79 1021.99 1022.25 1022.39 1022.46 1022.64 1022.89
1012.52 1011.66 1009.32 1007.97 1007.21 1007.26 1008.10 1008.19 1007.84 1007.40 1007.34 1007.35 1007.65 1007.73 1009.27 1010.18 1010.34 1011.15 1011.65 1012.17 1012.78 1013.29 1014.13 1015.02 1015.90 1016.54 1017.03 1017.45 1017.82 1018.22 1018.62 1018.94 1019.28 1019.69 1019.91 1020.32 1020.76 1021.10 1021.39 1021.56 1021.63 1021.81 1022.15 1022.36 1022.64 1022.86 1023.00 1023.27 1023.41
1012.65 1011.70 1009.28 1007.87 1007.33 1006.89 1007.25 1008.02 1007.54 1007.39 1007.00 1007.77 1007.69 1007.23 1008.59 1010.01 1010.69 1011.51 1011.95 1012.52 1013.08 1013.61 1014.24 1014.87 1015.80 1016.54 1017.06 1017.68 1018.18 1018.54 1018.96 1019.36 1019.68 1020.10 1020.40 1020.78 1021.18 1021.52 1021.83 1021.94 1022.05 1022.27 1022.56 1022.87 1023.13 1023.32 1023.56 1023.81 1023.92
1012.96 1011.19 1008.53 1007.75 1007.51 1006.88 1007.55 1007.44 1007.70 1007.66 1007.31 1007.57 1007.76 1007.66 1007.83 1009.80 1010.90 1011.75 1012.13 1012.60 1013.24 1013.75 1014.37 1014.70 1015.61 1016.24 1016.99 1017.57 1018.43 1018.91 1019.34 1019.74 1020.17 1020.58 1020.85 1021.08 1021.21 1021.57 1021.91 1022.43 1022.54 1022.76 1022.97 1023.27 1023.46 1023.70 1024.12 1024.41 1024.63
1011.99 1010.07 1008.46 1007.97 1007.88 1007.55 1007.56 1007.39 1007.28 1007.48 1007.20 1007.28 1007.76 1008.39 1008.62 1009.89 1010.51 1011.21 1011.70 1012.07 1012.90 1013.54 1014.19 1014.77 1015.41 1016.01 1016.90 1017.60 1018.41 1018.83 1019.49 1019.77 1019.95 1020.43 1020.73 1020.67 1021.08 1021.56 1022.01 1022.86 1023.03 1023.24 1023.51 1023.82 1023.96 1024.25 1024.37 1024.03 1024.27
1011.08 1008.88 1008.95 1008.56 1009.04 1008.64 1008.01 1007.81 1007.36 1006.86 1006.49 1006.45 1006.79 1007.91 1008.89 1009.96 1010.50 1011.02 1011.53 1011.72 1011.93 1013.17 1014.01 1014.69 1015.31 1015.83 1016.66 1017.55 1018.09 1018.66 1019.06 1019.54 1020.09 1020.42 1020.63 1020.93 1021.45 1022.11 1022.33 1022.80 1023.03 1023.34 1023.55 1023.76 1024.18 1024.30 1024.16 1024.24 1024.38
1010.86 1009.82 1009.59 1009.07 1009.40 1009.04 1008.44 1007.84 1007.27 1006.90 1006.31 1006.29 1006.85 1007.47 1008.45 1009.58 1010.08 1010.56 1011.13 1011.75 1012.55 1013.34 1013.80 1014.63 1015.20 1015.80 1016.46 1017.48 1018.04 1018.52 1018.99 1019.49 1020.05 1020.54 1020.82 1021.21 1021.49 1021.85 1022.29 1022.72 1023.11 1023.35 1023.57 1023.92 1024.02 1024.25 1024.53 1024.65 1024.69
1010.46 1010.00 1009.73 1009.54 1009.45 1009.21 1009.05 1008.20 1007.71 1007.15 1006.87 1007.19 1007.25 1007.34 1008.19 1009.02 1009.87 1010.52 1011.00 1011.55 1012.47 1013.13 1014.00 1014.73 1015.38 1015.78 1016.44 1017.36 1018.00 1018.76 1019.09 1019.51 1020.06 1020.61 1020.95 1021.31 1021.67 1021.91 1022.28 1022.74 1023.24 1023.35 1023.75 1024.08 1024.35 1024.48 1024.77 1024.97 1025.19
1010.03 1010.50 1009.94 1009.38 1009.14 1009.32 1008.86 1008.24 1008.29 1007.02 1006.96 1007.29 1007.31 1007.29 1007.97 1008.78 1009.55 1010.47 1011.08 1011.41 1012.16 1012.94 1013.81 1014.73 1015.37 1015.74 1016.56 1017.21 1018.05 1018.77 1019.19 1019.74 1020.28 1020.65 1021.03 1021.41 1021.67 1022.11 1022.55 1022.81 1023.23 1023.61 1023.80 1024.18 1024.43 1024.69 1024.95 1025.29 1025.49
1010.71 1010.26 1009.42 1008.85 1009.15 1008.77 1009.18 1008.08 1006.72 1007.28 1007.39 1007.07 1007.15 1007.33 1007.87 1008.67 1009.51 1010.06 1010.74 1011.25 1011.98 1012.82 1013.46 1014.56 1015.40 1015.91 1016.62 1017.25 1018.06 1018.79 1019.22 1019.86 1020.39 1020.76 1021.12 1021.46 1021.82 1022.30 1022.71 1023.00 1023.53 1023.87 1024.11 1024.39 1024.75 1025.10 1025.27 1025.54 1025.81
1010.56 1010.80 1009.04 1008.15 1008.28 1008.49 1008.83 1005.10 1006.68 1007.13 1007.25 1007.11 1007.28 1007.45 1008.16 1008.86 1009.46 1010.12 1010.75 1011.52 1012.21 1012.94 1013.70 1014.61 1015.32 1016.09 1016.80 1017.34 1018.05 1018.71 1019.35 1019.67 1020.30 1020.86 1021.29 1021.63 1021.93 1022.38 1022.75 1023.15 1023.52 1024.11 1024.49 1024.71 1024.95 1025.24 1025.52 1025.82 1026.08
1010.34 1008.55 1008.25 1007.83 1007.40 1007.71 1007.73 1005.69 1005.94 1006.43 1006.93 1006.98 1007.43 1007.93 1008.61 1009.40 1009.96 1010.48 1010.96 1011.54 1012.13 1012.85 1013.66 1014.42 1015.29 1016.16 1016.74 1017.28 1017.95 1018.64 1019.24 1019.71 1020.21 1020.68 1021.10 1021.62 1022.05 1022.42 1022.69 1023.08 1023.57 1024.21 1024.57 1024.80 1024.97 1025.29 1025.58 1025.91 1026.23
1009.42 1008.99 1007.58 1006.90 1006.94 1007.21 1006.69 1006.28 1006.28 1006.76 1006.83 1007.08 1007.55 1008.35 1009.24 1010.25 1011.28 1011.39 1011.46 1011.94 1012.47 1013.01 1013.70 1014.42 1015.20 1016.21 1016.63 1017.24 1017.93 1018.70 1019.23 1019.70 1020.20 1020.75 1021.01 1021.47 1022.04 1022.42 1022.63 1023.03 1023.60 1024.09 1024.52 1024.74 1025.02 1025.31 1025.53 1025.83 1026.29
1011.05 1008.74 1007.75 1007.12 1006.67 1006.85 1006.32 1006.27 1006.70 1007.20 1007.52 1007.57 1007.95 1008.70 1010.40 1011.57 1012.56 1012.71 1012.62 1012.53 1012.87 1013.31 1013.86 1014.33 1015.04 1015.73 1016.35 1017.04 1017.81 1018.52 1018.86 1019.52 1020.21 1020.69 1021.03 1021.40 1022.06 1022.34 1022.80 1023.10 1023.45 1023.97 1024.27 1024.56 1024.77 1025.26 1025.71 1026.04 1026.40
1011.84 1010.22 1008.08 1007.28 1006.89 1006.85 1006.04 1006.21 1007.24 1008.44 1009.04 1009.70 1009.46 1010.17 1011.68 1012.89 1013.67 1014.16 1013.83 1013.47 1013.63 1013.79 1014.17 1014.35 1014.92 1015.43 1016.02 1016.76 1017.39 1017.98 1018.74 1019.42 1019.86 1020.38 1020.80 1021.19 1021.67 1022.30 1022.80 1023.26 1023.87 1024.24 1024.25 1024.72 1024.79 1025.36 1025.89 1026.09 1026.42
1012.54 1011.19 1009.49 1007.53 1007.51 1007.00 1006.59 1006.57 1007.34 1009.85 1010.72 1011.87 1012.44 1012.84 1013.61 1014.24 1014.74 1015.42 1015.22 1015.05 1014.84 1015.06 1014.87 1014.89 1014.83 1015.43 1015.97 1016.55 1017.24 1017.85 1018.67 1019.37 1019.89 1020.35 1020.67 1020.98 1021.47 1022.37 1022.60 1023.12 1023.64 1024.05 1024.38 1024.55 1024.98 1025.28 1025.58 1026.05 1026.78
1013.09 1012.04 1010.96 1009.60 1007.56 1006.27 1006.58 1005.42 1007.28 1009.56 1011.56 1013.26 1014.59 1015.27 1015.92 1016.32 1016.49 1016.91 1016.88 1016.51 1016.57 1016.37 1015.89 1015.70 1015.83 1016.07 1016.29 1016.54 1017.04 1017.46 1018.06 1018.84 1019.30 1019.85 1020.36 1020.72 1021.46 1022.04 1022.55 1023.01 1023.44 1023.87 1024.16 1024.60 1024.77 1024.97 1025.25 1025.63 1026.21
1015.22 1013.46 1012.28 1010.41 1008.67 1006.94 1006.15 1006.73 1006.31 1009.50 1012.25 1014.33 1016.37 1017.37 1018.00 1018.43 1018.36 1018.67 1018.58 1018.20 1018.02 1017.65 1017.12 1016.78 1016.56 1016.81 1016.86 1016.82 1017.03 1017.45 1018.09 1018.54 1019.04 1019.95 1020.40 1020.82 1021.04 1021.38 1021.90 1022.47 1023.08 1023.64 1023.95 1024.29 1024.59 1025.08 1024.96 1025.48 1025.69
1017.18 1015.19 1013.09 1011.49 1009.53 1006.53 1005.30 1006.70 1008.19 1010.82 1012.57 1015.58 1018.03 1019.11 1019.69 1019.97 1020.07 1020.17 1019.82 1019.49 1019.26 1018.72 1018.02 1017.80 1017.57 1017.80 1017.60 1017.47 1017.29 1017.36 1017.85 1018.19 1018.48 1019.31 1020.17 1020.67 1021.08 1021.51 1021.86 1022.24 1022.70 1023.27 1023.60 1024.09 1024.19 1024.50 1024.72 1025.18 1025.55
1018.39 1016.45 1013.78 1012.49 1009.87 1006.27 1006.01 1008.59 1012.65 1014.88 1015.89 1017.07 1019.30 1020.62 1021.26 1021.47 1021.43 1021.56 1021.20 1020.78 1020.30 1019.85 1019.47 1019.06 1018.78 1018.76 1018.62 1018.22 1018.07 1018.09 1018.24 1018.39 1018.63 1018.68 1019.21 1020.20 1020.81 1021.19 1021.61 1021.87 1022.32 1022.72 1022.98 1023.44 1023.95 1024.47 1024.60 1025.05 1025.49
1020.62 1019.25 1016.52 1013.19 1010.22 1008.14 1007.40 1010.53 1015.35 1018.06 1019.17 1020.14 1021.16 1022.03 1022.49 1022.84 1022.85 1022.87 1022.55 1022.16 1021.45 1021.39 1021.22 1020.24 1020.05 1019.75 1019.70 1019.33 1019.20 1019.00 1018.87 1019.04 1019.23 1019.34 1019.47 1019.85 1020.10 1020.61 1021.02 1021.32 1021.65 1022.24 1022.59 1023.01 1023.36 1023.67 1024.06 1024.44 1025.08
1022.42 1021.19 1020.64 1017.36 1012.99 1011.10 1012.14 1016.10 1018.52 1020.00 1021.03 1021.93 1022.73 1023.45 1023.87 1024.14 1024.17 1024.35 1023.76 1023.27 1023.19 1022.87 1022.37 1021.56 1021.54 1021.07 1020.93 1020.37 1020.02 1020.01 1019.90 1019.80 1019.87 1019.90 1019.91 1020.07 1020.39 1020.69 1020.82 1021.10 1021.41 1021.77 1022.19 1022.71 1022.92 1023.29 1023.57 1023.85 1024.37
1025.08 1024.58 1022.38 1019.64 1016.42 1014.15 1015.25 1017.19 1019.80 1021.27 1022.41 1023.31 1024.05 1024.76 1025.22 1025.34 1025.29 1025.14 1024.91 1024.52 1024.57 1023.72 1023.50 1022.78 1022.67 1022.44 1022.02 1021.24 1021.04 1020.43 1020.56 1020.46 1020.38 1020.33 1020.28 1020.34 1020.42 1020.68 1021.00 1021.24 1021.33 1021.50 1021.76 1021.97 1022.35 1022.81 1023.05 1023.36 1023.82
1026.07 1025.76 1024.75 1022.92 1019.91 1017.38 1017.57 1020.64 1022.49 1022.71 1023.81 1024.64 1025.33 1025.86 1026.32 1026.42 1026.39 1026.31 1025.97 1025.81 1024.88 1025.20 1024.40 1024.12 1023.55 1022.76 1023.04 1022.18 1021.84 1021.37 1021.23 1021.00 1021.07 1021.01 1021.01 1021.06 1020.99 1020.99 1021.25 1021.18 1021.31 1021.46 1021.68 1021.83 1022.18 1022.48 1022.76 1023.03 1023.34
1028.23 1027.76 1026.65 1024.65 1022.17 1020.95 1020.48 1024.11 1024.35 1024.58 1025.16 1025.78 1026.20 1026.64 1027.08 1027.40 1027.41 1027.27 1027.05 1026.52 1026.21 1025.74 1026.14 1025.06 1025.37 1024.34 1024.42 1023.52 1022.61 1022.02 1022.25 1022.13 1021.85 1021.75 1021.86 1021.86 1021.65 1021.48 1021.43 1021.29 1021.32 1021.38 1021.52 1021.67 1022.06 1022.29 1022.65 1022.75 1022.96
Thickness
5681 5683 5687 5689 5679 5686 5702 5720 5732 5723 5723 5742 5746 5748 5749 5760 5749 5738 5752 5755 5756 5749 5742 5733 5729 5728 5726 5725 5723 5722 5722 5722 5723 5723 5723 5724 5724 5725 5726 5726 5727 5726 5726 5725 5725 5724 5723 5722 5723
5676 5676 5678 5681 5676 5681 5709 5733 5715 5735 5739 5738 5738 5742 5745 5749 5752 5742 5743 5752 5751 5747 5740 5734 5728 5726 5725 5722 5721 5719 5719 5720 5720 5721 5721 5721 5721 5722 5723 5723 5723 5724 5723 5722 5722 5720 5720 5720 5720
5668 5670 5670 5671 5681 5696 5716 5729 5729 5732 5732 5734 5735 5741 5748 5751 5748 5745 5752 5750 5747 5742 5738 5732 5727 5724 5722 5720 5718 5716 5717 5717 5718 5718 5719 5720 5718 5719 5719 5720 5720 5720 5720 5719 5718 5717 5718 5718 5718
5661 5659 5659 5659 5685 5713 5722 5723 5729 5726 5723 5729 5736 5732 5742 5748 5747 5750 5749 5747 5745 5740 5735 5727 5724 5722 5719 5717 5716 5715 5715 5715 5716 5715 5716 5717 5717 5717 5718 5717 5716 5717 5717 5716 5716 5716 5717 5717 5716
5654 5657 5653 5659 5687 5708 5705 5714 5716 5718 5727 5730 5729 5734 5736 5740 5747 5746 5744 5744 5740 5736 5732 5724 5721 5718 5717 5715 5714 5713 5712 5713 5713 5713 5713 5713 5714 5713 5713 5713 5714 5714 5714 5714 5714 5714 5714 5715 5714
5640 5651 5648 5665 5690 5702 5697 5707 5707 5713 5721 5724 5720 5728 5731 5735 5738 5737 5738 5739 5734 5731 5727 5722 5716 5714 5713 5712 5711 5710 5710 5710 5710 5710 5710 5709 5710 5709 5709 5709 5710 5711 5711 5711 5710 5711 5712 5711 5710
5637 5640 5656 5679 5688 5687 5689 5702 5703 5711 5711 5716 5727 5721 5721 5722 5732 5730 5731 5730 5729 5726 5723 5718 5713 5710 5709 5709 5708 5707 5706 5706 5707 5706 5707 5706 5705 5705 5705 5706 5708 5708 5708 5708 5708 5707 5707 5706 5706
5631 5633 5650 5667 5672 5680 5699 5691 5706 5705 5709 5717 5723 5717 5715 5720 5725 5722 5722 5722 5722 5720 5718 5716 5711 5708 5706 5704 5703 5703 5703 5702 5702 5702 5702 5702 5701 5701 5701 5703 5704 5704 5703 5703 5703 5703 5703 5703 5703
5620 5621 5640 5659 5667 5686 5691 5688 5696 5705 5705 5707 5714 5721 5730 5719 5715 5711 5711 5713 5714 5714 5713 5713 5709 5707 5704 5702 5698 5699 5698 5698 5697 5697 5697 5698 5698 5698 5698 5697 5698 5699 5699 5699 5699 5700 5699 5699 5698
5609 5621 5639 5664 5671 5674 5681 5682 5688 5688 5695 5699 5704 5712 5719 5711 5712 5708 5708 5710 5710 5710 5711 5711 5707 5705 5701 5699 5696 5695 5693 5694 5695 5695 5695 5697 5697 5695 5695 5692 5693 5693 5693 5694 5695 5694 5695 5698 5697
5607 5623 5635 5644 5646 5657 5666 5666 5680 5685 5687 5703 5706 5706 5706 5701 5703 5704 5705 5710 5714 5709 5707 5707 5704 5702 5699 5696 5695 5693 5692 5692 5691 5692 5693 5693 5692 5689 5690 5689 5690 5689 5690 5690 5689 5690 5692 5694 5694
5593 5611 5616 5629 5630 5638 5647 5663 5666 5676 5692 5704 5704 5705 5701 5696 5699 5702 5703 5705 5703 5701 5702 5700 5698 5697 5696 5692 5690 5689 5689 5689 5687 5687 5689 5688 5689 5689 5688 5688 5687 5686 5686 5686 5687 5687 5687 5688 5689
5581 5596 5600 5613 5617 5625 5631 5642 5651 5661 5678 5685 5690 5697 5696 5696 5695 5698 5700 5701 5699 5697 5695 5694 5693 5693 5691 5688 5685 5683 5684 5684 5683 5683 5683 5684 5684 5685 5685 5684 5683 5684 5682 5682 5682 5683 5683 5683 5683
5579 5571 5581 5600 5608 5609 5618 5629 5630 5659 5668 5672 5679 5689 5692 5691 5691 5689 5689 5695 5695 5694 5691 5690 5688 5688 5685 5684 5680 5677 5678 5677 5677 5678 5679 5679 5680 5680 5680 5680 5680 5679 5679 5678 5678 5678 5679 5678 5678
5550 5553 5570 5589 5593 5600 5601 5609 5632 5648 5650 5662 5670 5679 5685 5685 5685 5685 5687 5690 5691 5689 5690 5685 5683 5681 5680 5677 5673 5672 5672 5671 5671 5672 5673 5674 5675 5674 5675 5675 5674 5673 5674 5674 5673 5672 5673 5673 5673
5531 5528 5546 5581 5586 5589 5589 5630 5629 5637 5640 5648 5658 5668 5671 5674 5679 5681 5680 5679 5680 5679 5679 5678 5678 5675 5673 5671 5668 5666 5665 5666 5666 5666 5667 5669 5670 5670 5671 5670 5670 5669 5668 5668 5668 5668 5668 5667 5667
5509 5538 5540 5560 5581 5580 5587 5618 5627 5631 5631 5639 5646 5654 5658 5661 5665 5668 5671 5674 5675 5675 5673 5673 5672 5668 5668 5666 5664 5661 5660 5659 5660 5662 5663 5663 5664 5665 5666 5667 5666 5664 5664 5664 5665 5665 5664 5663 5663
5519 5520 5541 5549 5569 5570 5583 5593 5610 5613 5621 5629 5638 5645 5648 5643 5640 5649 5660 5664 5665 5666 5666 5666 5665 5661 5663 5661 5658 5656 5654 5654 5655 5655 5658 5659 5659 5660 5662 5662 5662 5661 5661 5661 5661 5662 5661 5661 5659
5457 5514 5523 5539 5559 5562 5576 5585 5593 5599 5606 5618 5629 5637 5626 5623 5621 5630 5641 5650 5655 5656 5656 5659 5658 5659 5659 5658 5656 5654 5654 5652 5651 5650 5652 5653 5653 5655 5655 5657 5658 5657 5658 5659 5659 5658 5656 5655 5655
5437 5462 5506 5527 5536 5550 5569 5572 5577 5572 5579 5586 5611 5617 5610 5603 5606 5611 5622 5633 5639 5643 5649 5653 5655 5657 5658 5656 5655 5653 5650 5647 5647 5646 5647 5648 5649 5649 5650 5652 5651 5651 5654 5653 5656 5654 5651 5653 5653
5423 5442 5473 5514 5518 5538 5548 5551 5563 5541 5550 5552 5556 5575 5582 5587 5590 5592 5602 5609 5619 5624 5633 5641 5649 5650 5651 5652 5651 5649 5645 5642 5641 5643 5645 5646 5646 5645 5648 5647 5646 5647 5648 5651 5650 5650 5650 5648 5646
5409 5451 5449 5460 5504 5519 5536 5551 5552 5552 5538 5535 5525 5534 5543 5553 5562 5568 5578 5587 5594 5603 5617 5626 5632 5637 5642 5646 5646 5647 5645 5642 5644 5644 5643 5643 5642 5643 5643 5643 5643 5643 5646 5646 5647 5648 5650 5649 5646
5377 5404 5420 5449 5470 5517 5524 5532 5559 5547 5535 5526 5501 5507 5515 5522 5536 5542 5553 5564 5573 5585 5597 5608 5618 5623 5629 5636 5640 5640 5639 5640 5640 5635 5636 5637 5639 5641 5642 5641 5640 5641 5642 5644 5644 5643 5646 5646 5647
5337 5377 5421 5430 5453 5497 5530 5539 5540 5534 5541 5502 5478 5483 5492 5501 5511 5520 5533 5543 5553 5566 5580 5591 5601 5606 5613 5621 5630 5635 5634 5637 5639 5636 5632 5633 5634 5636 5637 5638 5639 5638 5639 5639 5641 5642 5644 5644 5644
5313 5362 5425 5426 5448 5501 5527 5523 5436 5434 5466 5485 5461 5460 5468 5479 5489 5498 5510 5522 5535 5547 5559 5572 5583 5590 5596 5604 5614 5620 5624 5628 5630 5634 5634 5631 5630 5631 5633 5634 5636 5636 5637 5638 5638 5638 5640 5639 5637
5282 5310 5370 5436 5462 5499 5521 5506 5409 5394 5417 5429 5435 5439 5447 5456 5467 5476 5488 5501 5515 5525 5536 5553 5562 5571 5578 5586 5592 5602 5610 5614 5618 5622 5626 5627 5629 5629 5630 5632 5634 5634 5635 5635 5636 5636 5636 5637 5634
5274 5299 5284 5329 5418 5472 5426 5351 5371 5377 5389 5399 5408 5417 5426 5434 5446 5454 5469 5482 5491 5503 5516 5531 5538 5551 5559 5570 5579 5584 5592 5599 5604 5609 5614 5617 5619 5621 5623 5626 5628 5629 5630 5631 5632 5632 5633 5634 5634
5235 5243 5297 5323 5404 5452 5389 5376 5364 5363 5370 5379 5385 5393 5402 5414 5425 5437 5449 5462 5470 5485 5496 5511 5520 5531 5542 5555 5562 5573 5576 5584 5591 5597 5602 5606 5610 5612 5614 5617 5620 5623 5625 5627 5627 5628 5629 5631 5631
5227 5228 5242 5253 5307 5399 5401 5338 5324 5347 5348 5357 5364 5372 5380 5391 5403 5415 5429 5440 5456 5462 5478 5488 5501 5517 5522 5536 5546 5555 5562 5570 5576 5582 5587 5591 5596 5600 5604 5609 5613 5616 5617 5619 5620 5622 5624 5625 5626
5205 5208 5223 5258 5306 5317 5335 5283 5308 5320 5328 5337 5348 5357 5363 5371 5382 5395 5406 5421 5433 5446 5451 5469 5475 5492 5499 5510 5529 5540 5544 5552 5560 5566 5570 5575 5581 5588 5593 5598 5603 5608 5610 5612 5614 5616 5616 5619 5620